| time (UTC) | temp F | wind direction | speed MPH | gust MPH | rain 1hr in | rain 24hr in | rain mn in | humidity % | barometer mb |
| 20260831053517 | 58 | 135 | 1.0 | 2.0 | 0.00 | 0.07 | 0.00 | 99 | 1009.5 |
| 20260831052517 | 58 | 135 | 1.0 | 3.0 | 0.00 | 0.07 | 0.00 | 99 | 1009.4 |
| 20260831051517 | 58 | 158 | 2.0 | 4.0 | 0.00 | 0.07 | 0.00 | 99 | 1009.6 |
| 20260831050517 | 58 | 158 | 1.0 | 4.0 | 0.00 | 0.07 | 0.00 | 99 | 1009.8 |
| 20260831045537 | 58 | 158 | 1.0 | 2.0 | 0.00 | 0.07 | 0.00 | 99 | 1010.0 |
| 20260831044517 | 58 | 158 | 1.0 | 4.0 | 0.00 | 0.07 | 0.00 | 99 | 1009.9 |
| 20260831043517 | 59 | 158 | 2.0 | 5.0 | 0.00 | 0.07 | 0.00 | 99 | 1009.7 |
| 20260831042516 | 59 | 158 | 2.0 | 4.0 | 0.00 | 0.07 | 0.00 | 99 | 1009.6 |
| 20260831041537 | 59 | 158 | 2.0 | 4.0 | 0.00 | 0.07 | 0.00 | 99 | 1009.8 |
| 20260831040517 | 59 | 180 | 1.0 | 4.0 | 0.00 | 0.07 | 0.00 | 99 | 1009.8 |
| 20260831035516 | 59 | 180 | 1.0 | 2.0 | 0.00 | 0.07 | 0.00 | 99 | 1010.0 |
| 20260831034516 | 59 | 180 | 1.0 | 3.0 | 0.00 | 0.07 | 0.00 | 99 | 1010.2 |
| 20260831033517 | 59 | 158 | 1.0 | 5.0 | 0.00 | 0.07 | 0.00 | 99 | 1010.4 |
| 20260831032517 | 59 | 158 | 2.0 | 3.0 | 0.00 | 0.07 | 0.00 | 99 | 1010.3 |
| 20260831031516 | 59 | 158 | 2.0 | 5.0 | 0.00 | 0.07 | 0.00 | 99 | 1010.5 |
| 20260831030517 | 59 | 158 | 3.0 | 5.0 | 0.00 | 0.07 | 0.00 | 99 | 1010.5 |
| 20260831025536 | 59 | 158 | 1.0 | 2.0 | 0.00 | 0.07 | 0.00 | 99 | 1010.7 |
| 20260831024516 | 60 | 180 | 2.0 | 5.0 | 0.00 | 0.07 | 0.00 | 99 | 1010.9 |
| 20260831023537 | 59 | 180 | 1.0 | 3.0 | 0.00 | 0.07 | 0.00 | 99 | 1011.0 |
| 20260831022537 | 59 | 180 | 3.0 | 6.0 | 0.00 | 0.07 | 0.00 | 99 | 1011.1 |
| 20260831021517 | 60 | 180 | 3.0 | 5.0 | 0.00 | 0.07 | 0.00 | 99 | 1011.0 |
| 20260831020537 | 60 | 180 | 1.0 | 4.0 | 0.00 | 0.07 | 0.00 | 99 | 1010.9 |
| 20260831015516 | 60 | 180 | 1.0 | 2.0 | 0.00 | 0.07 | 0.00 | 99 | 1010.8 |
| 20260831014516 | 60 | 180 | 1.0 | 4.0 | 0.00 | 0.07 | 0.00 | 99 | 1010.8 |
| 20260831013519 | 60 | 0.0 | 2.0 | 0.00 | 0.07 | 0.00 | 99 | 1010.8 | |
| 20260831012518 | 61 | 180 | 1.0 | 2.0 | 0.00 | 0.07 | 0.00 | 99 | 1010.8 |
| 20260831011518 | 61 | 180 | 1.0 | 2.0 | 0.00 | 0.07 | 0.00 | 99 | 1010.9 |
| 20260831010518 | 61 | 180 | 1.0 | 2.0 | 0.00 | 0.07 | 0.00 | 99 | 1011.1 |
| 20260831005518 | 61 | 180 | 1.0 | 4.0 | 0.00 | 0.07 | 0.00 | 99 | 1011.2 |
| 20260831004518 | 61 | 180 | 2.0 | 4.0 | 0.00 | 0.07 | 0.00 | 99 | 1011.4 |
| 20260831003518 | 61 | 180 | 1.0 | 3.0 | 0.00 | 0.07 | 0.00 | 99 | 1011.5 |
| 20260831002518 | 62 | 180 | 1.0 | 2.0 | 0.00 | 0.07 | 0.00 | 99 | 1011.5 |
| 20260831001518 | 62 | 180 | 2.0 | 5.0 | 0.00 | 0.07 | 0.00 | 99 | 1011.7 |
| 20260831000538 | 62 | 203 | 1.0 | 4.0 | 0.00 | 0.07 | 0.00 | 98 | 1011.7 |
| 20260830235518 | 62 | 203 | 1.0 | 3.0 | 0.00 | 0.07 | 0.00 | 99 | 1011.7 |
| 20260830234517 | 62 | 225 | 1.0 | 3.0 | 0.00 | 0.07 | 0.00 | 99 | 1011.7 |
| 20260830233518 | 62 | 225 | 1.0 | 3.0 | 0.00 | 0.07 | 0.00 | 99 | 1011.7 |
| 20260830232518 | 62 | 225 | 1.0 | 3.0 | 0.00 | 0.07 | 0.00 | 98 | 1011.8 |
| 20260830231518 | 62 | 248 | 1.0 | 3.0 | 0.00 | 0.07 | 0.00 | 98 | 1011.8 |
| 20260830230518 | 62 | 0.0 | 1.0 | 0.00 | 0.07 | 0.00 | 98 | 1011.8 | |
| 20260830225518 | 62 | 0.0 | 2.0 | 0.00 | 0.07 | 0.00 | 98 | 1011.9 | |
| 20260830224518 | 62 | 0.0 | 0.0 | 0.00 | 0.07 | 0.00 | 98 | 1011.9 | |
| 20260830223518 | 62 | 0.0 | 1.0 | 0.00 | 0.07 | 0.00 | 98 | 1012.0 | |
| 20260830222538 | 62 | 0.0 | 2.0 | 0.00 | 0.07 | 0.00 | 98 | 1011.9 | |
| 20260830221518 | 62 | 248 | 1.0 | 2.0 | 0.00 | 0.07 | 0.00 | 98 | 1011.9 |
| 20260830220518 | 62 | 248 | 3.0 | 5.0 | 0.00 | 0.07 | 0.00 | 98 | 1011.9 |
| 20260830215518 | 62 | 225 | 3.0 | 5.0 | 0.00 | 0.07 | 0.07 | 98 | 1012.1 |
| 20260830214518 | 62 | 225 | 4.0 | 6.0 | 0.00 | 0.07 | 0.07 | 98 | 1012.2 |
| 20260830213518 | 62 | 203 | 2.0 | 3.0 | 0.00 | 0.07 | 0.07 | 98 | 1012.2 |
| 20260830212518 | 62 | 180 | 2.0 | 3.0 | 0.00 | 0.07 | 0.07 | 98 | 1012.1 |
| 20260830211517 | 62 | 0.0 | 2.0 | 0.01 | 0.07 | 0.07 | 98 | 1011.9 | |
| 20260830210518 | 62 | 180 | 1.0 | 2.0 | 0.01 | 0.07 | 0.07 | 98 | 1011.8 |
| 20260830205518 | 62 | 203 | 1.0 | 3.0 | 0.01 | 0.07 | 0.07 | 98 | 1012.0 |
| 20260830204518 | 62 | 203 | 2.0 | 4.0 | 0.01 | 0.07 | 0.07 | 98 | 1012.0 |
| 20260830203518 | 63 | 225 | 3.0 | 6.0 | 0.01 | 0.07 | 0.07 | 98 | 1012.0 |
| 20260830202538 | 63 | 225 | 4.0 | 9.0 | 0.01 | 0.07 | 0.07 | 98 | 1012.0 |
| 20260830201518 | 63 | 225 | 4.0 | 8.0 | 0.00 | 0.06 | 0.06 | 98 | 1012.0 |
| 20260830200518 | 63 | 225 | 4.0 | 8.0 | 0.00 | 0.06 | 0.06 | 98 | 1012.0 |
| 20260830195518 | 63 | 225 | 4.0 | 9.0 | 0.00 | 0.06 | 0.06 | 98 | 1012.0 |
| 20260830194518 | 63 | 225 | 5.0 | 10.0 | 0.00 | 0.06 | 0.06 | 98 | 1012.1 |
| 20260830193517 | 63 | 0 | 6.0 | 10.0 | 0.00 | 0.06 | 0.06 | 98 | 1012.0 |
| 20260830192517 | 63 | 0 | 5.0 | 8.0 | 0.01 | 0.06 | 0.06 | 98 | 1012.1 |
| 20260830191518 | 63 | 248 | 5.0 | 8.0 | 0.01 | 0.06 | 0.06 | 98 | 1012.1 |
| 20260830190518 | 63 | 0 | 5.0 | 9.0 | 0.02 | 0.06 | 0.06 | 98 | 1012.1 |
| 20260830185517 | 62 | 0 | 5.0 | 8.0 | 0.02 | 0.06 | 0.06 | 98 | 1011.9 |
| 20260830184518 | 62 | 0 | 7.0 | 11.0 | 0.02 | 0.06 | 0.06 | 97 | 1011.8 |
| 20260830183537 | 62 | 0 | 9.0 | 13.0 | 0.02 | 0.06 | 0.06 | 97 | 1011.8 |
| 20260830182517 | 62 | 0 | 6.0 | 10.0 | 0.03 | 0.06 | 0.06 | 97 | 1011.6 |
| 20260830181517 | 62 | 0 | 9.0 | 12.0 | 0.04 | 0.06 | 0.06 | 97 | 1011.4 |
| 20260830180517 | 63 | 0 | 10.0 | 16.0 | 0.03 | 0.05 | 0.05 | 97 | 1011.3 |
| 20260830175518 | 63 | 0 | 8.0 | 13.0 | 0.04 | 0.05 | 0.05 | 97 | 1011.3 |
| 20260830174518 | 63 | 0 | 8.0 | 11.0 | 0.04 | 0.05 | 0.05 | 97 | 1011.1 |
| 20260830173518 | 63 | 0 | 12.0 | 15.0 | 0.04 | 0.05 | 0.05 | 97 | 1011.1 |
| 20260830172537 | 63 | 0 | 12.0 | 15.0 | 0.02 | 0.02 | 0.02 | 96 | 1011.1 |
| 20260830171518 | 63 | 0 | 11.0 | 14.0 | 0.02 | 0.02 | 0.02 | 96 | 1011.1 |
| 20260830170517 | 64 | 0 | 13.0 | 19.0 | 0.02 | 0.02 | 0.02 | 96 | 1011.0 |
| 20260830165517 | 64 | 0 | 10.0 | 14.0 | 0.01 | 0.01 | 0.01 | 96 | 1011.0 |
| 20260830164538 | 64 | 0 | 10.0 | 14.0 | 0.01 | 0.01 | 0.01 | 96 | 1010.8 |
| 20260830163517 | 65 | 0 | 10.0 | 14.0 | 0.01 | 0.01 | 0.01 | 96 | 1010.8 |
| 20260830162517 | 64 | 0 | 11.0 | 14.0 | 0.01 | 0.01 | 0.01 | 96 | 1010.6 |
| 20260830161517 | 65 | 0 | 10.0 | 14.0 | 0.00 | 0.00 | 0.00 | 95 | 1010.6 |
| 20260830160517 | 65 | 0 | 11.0 | 14.0 | 0.00 | 0.00 | 0.00 | 96 | 1010.5 |
| 20260830155517 | 65 | 0 | 12.0 | 17.0 | 0.00 | 0.00 | 0.00 | 95 | 1010.5 |
| 20260830154517 | 64 | 0 | 14.0 | 18.0 | 0.00 | 0.00 | 0.00 | 94 | 1010.5 |
| 20260830153537 | 65 | 0 | 17.0 | 21.0 | 0.00 | 0.00 | 0.00 | 93 | 1010.4 |
| 20260830152517 | 65 | 0 | 17.0 | 24.0 | 0.00 | 0.00 | 0.00 | 90 | 1010.3 |
| 20260830151517 | 68 | 0 | 22.0 | 28.0 | 0.00 | 0.00 | 0.00 | 84 | 1010.4 |
| 20260830150517 | 69 | 0 | 14.0 | 24.0 | 0.00 | 0.00 | 0.00 | 80 | 1009.8 |
| 20260830145517 | 70 | 0 | 12.0 | 18.0 | 0.00 | 0.00 | 0.00 | 80 | 1009.6 |
| 20260830144517 | 70 | 0 | 11.0 | 19.0 | 0.00 | 0.00 | 0.00 | 79 | 1009.5 |
| 20260830143517 | 71 | 0 | 12.0 | 20.0 | 0.00 | 0.00 | 0.00 | 78 | 1009.4 |
| 20260830142517 | 70 | 0 | 18.0 | 25.0 | 0.00 | 0.00 | 0.00 | 79 | 1009.4 |
| 20260830141537 | 71 | 0 | 13.0 | 20.0 | 0.00 | 0.00 | 0.00 | 77 | 1009.2 |
| 20260830140517 | 72 | 0 | 15.0 | 23.0 | 0.00 | 0.00 | 0.00 | 76 | 1009.2 |
| 20260830135517 | 71 | 0 | 17.0 | 25.0 | 0.00 | 0.00 | 0.00 | 79 | 1009.2 |
| 20260830134537 | 70 | 0 | 13.0 | 22.0 | 0.00 | 0.00 | 0.00 | 79 | 1009.2 |
| 20260830133517 | 70 | 0 | 11.0 | 18.0 | 0.00 | 0.00 | 0.00 | 79 | 1009.0 |
| 20260830132517 | 70 | 0 | 14.0 | 22.0 | 0.00 | 0.00 | 0.00 | 78 | 1008.9 |
| 20260830131517 | 71 | 0 | 13.0 | 20.0 | 0.00 | 0.00 | 0.00 | 77 | 1008.8 |
| 20260830130537 | 72 | 0 | 14.0 | 24.0 | 0.00 | 0.00 | 0.00 | 76 | 1008.8 |
| 20260830125537 | 70 | 0 | 15.0 | 26.0 | 0.00 | 0.00 | 0.00 | 80 | 1008.7 |
| 20260830124517 | 69 | 0 | 13.0 | 26.0 | 0.00 | 0.00 | 0.00 | 79 | 1008.7 |
| 20260830123537 | 69 | 0 | 15.0 | 23.0 | 0.00 | 0.00 | 0.00 | 79 | 1008.7 |
| 20260830122517 | 70 | 0 | 14.0 | 25.0 | 0.00 | 0.00 | 0.00 | 78 | 1008.6 |
| 20260830121517 | 70 | 0 | 14.0 | 24.0 | 0.00 | 0.00 | 0.00 | 78 | 1008.4 |
| 20260830120517 | 70 | 0 | 14.0 | 23.0 | 0.00 | 0.00 | 0.00 | 78 | 1008.5 |
| 20260830115517 | 70 | 0 | 14.0 | 22.0 | 0.00 | 0.00 | 0.00 | 79 | 1008.4 |
| 20260830114517 | 69 | 0 | 15.0 | 22.0 | 0.00 | 0.00 | 0.00 | 79 | 1008.3 |
| 20260830113517 | 70 | 0 | 15.0 | 23.0 | 0.00 | 0.00 | 0.00 | 78 | 1008.2 |
| 20260830112517 | 71 | 0 | 14.0 | 26.0 | 0.00 | 0.00 | 0.00 | 77 | 1008.1 |
| 20260830111517 | 70 | 0 | 14.0 | 23.0 | 0.00 | 0.00 | 0.00 | 79 | 1008.0 |
| 20260830110517 | 70 | 0 | 15.0 | 26.0 | 0.00 | 0.00 | 0.00 | 79 | 1008.0 |
| 20260830105516 | 70 | 0 | 14.0 | 26.0 | 0.00 | 0.00 | 0.00 | 79 | 1007.9 |
| 20260830104517 | 69 | 0 | 15.0 | 29.0 | 0.00 | 0.00 | 0.00 | 79 | 1008.1 |
| 20260830103517 | 69 | 0 | 13.0 | 23.0 | 0.00 | 0.00 | 0.00 | 80 | 1008.0 |
| 20260830102517 | 70 | 0 | 14.0 | 26.0 | 0.00 | 0.00 | 0.00 | 80 | 1007.9 |
| 20260830101516 | 71 | 0 | 14.0 | 31.0 | 0.00 | 0.00 | 0.00 | 78 | 1008.0 |
| 20260830100516 | 70 | 0 | 13.0 | 24.0 | 0.00 | 0.00 | 0.00 | 80 | 1007.9 |
| 20260830095517 | 69 | 0 | 16.0 | 24.0 | 0.00 | 0.00 | 0.00 | 81 | 1007.9 |
| 20260830094517 | 69 | 0 | 12.0 | 22.0 | 0.00 | 0.00 | 0.00 | 82 | 1007.9 |
| 20260830093517 | 68 | 0 | 14.0 | 23.0 | 0.00 | 0.00 | 0.00 | 82 | 1007.8 |
| 20260830092517 | 68 | 0 | 14.0 | 23.0 | 0.00 | 0.00 | 0.00 | 83 | 1007.8 |
| 20260830091536 | 68 | 0 | 11.0 | 18.0 | 0.00 | 0.00 | 0.00 | 84 | 1007.7 |
| 20260830090516 | 68 | 0 | 13.0 | 24.0 | 0.00 | 0.00 | 0.00 | 83 | 1007.6 |
| 20260830085517 | 68 | 0 | 13.0 | 27.0 | 0.00 | 0.00 | 0.00 | 84 | 1007.6 |
| 20260830084516 | 67 | 0 | 12.0 | 22.0 | 0.00 | 0.00 | 0.00 | 85 | 1007.4 |
| 20260830083536 | 67 | 0 | 14.0 | 24.0 | 0.00 | 0.00 | 0.00 | 83 | 1007.5 |
| 20260830082516 | 68 | 0 | 14.0 | 25.0 | 0.00 | 0.00 | 0.00 | 83 | 1007.2 |
| 20260830081518 | 67 | 0 | 13.0 | 23.0 | 0.00 | 0.00 | 0.00 | 85 | 1007.1 |
| 20260830080516 | 67 | 0 | 12.0 | 24.0 | 0.00 | 0.00 | 0.00 | 84 | 1007.2 |
| 20260830075518 | 67 | 0 | 11.0 | 23.0 | 0.00 | 0.00 | 0.00 | 85 | 1007.1 |
| 20260830074516 | 67 | 0 | 11.0 | 20.0 | 0.00 | 0.00 | 0.00 | 85 | 1007.1 |
| 20260830073518 | 67 | 0 | 12.0 | 19.0 | 0.00 | 0.00 | 0.00 | 86 | 1006.9 |
| 20260830072517 | 66 | 0 | 11.0 | 17.0 | 0.00 | 0.00 | 0.00 | 86 | 1007.0 |
| 20260830071518 | 66 | 0 | 10.0 | 18.0 | 0.00 | 0.00 | 0.00 | 87 | 1006.8 |
| 20260830070518 | 66 | 0 | 13.0 | 23.0 | 0.00 | 0.00 | 0.00 | 87 | 1006.7 |
| 20260830065519 | 66 | 0 | 11.0 | 20.0 | 0.00 | 0.00 | 0.00 | 87 | 1006.8 |
| 20260830064518 | 67 | 0 | 11.0 | 20.0 | 0.00 | 0.00 | 0.00 | 87 | 1006.8 |
| 20260830063538 | 66 | 0 | 9.0 | 17.0 | 0.00 | 0.00 | 0.00 | 88 | 1006.7 |
| 20260830062518 | 65 | 0 | 10.0 | 22.0 | 0.00 | 0.00 | 0.00 | 89 | 1006.6 |
| 20260830061518 | 65 | 0 | 9.0 | 20.0 | 0.00 | 0.00 | 0.00 | 89 | 1006.5 |
| 20260830060558 | 65 | 0 | 9.0 | 17.0 | 0.00 | 0.00 | 0.00 | 89 | 1006.4 |
| 20260830055518 | 65 | 0 | 10.0 | 17.0 | 0.00 | 0.00 | 0.00 | 90 | 1006.4 |
| 20260830054518 | 65 | 0 | 11.0 | 20.0 | 0.00 | 0.00 | 0.00 | 90 | 1006.5 |